Regional Weather Roundup
Issued by NWS Jackson, KY

Home | Current Version | Previous Version | Text Only | Print | Product List | Glossary Off
Versions: 1 2 3 4 5 6 7 8 9 10 11 12 13 14 15 16 17 18 19 20 21 22 23 24 25 26 27 28 29 30 31 32 33 34 35 36 37 38 39 40 41 42 43 44 45 46 47 48 49 50

000
ASUS43 KJKL 220110
RWRJKL

EAST KENTUCKY HOURLY WEATHER ROUNDUP
NATIONAL WEATHER SERVICE JACKSON KY
900 PM EDT TUE OCT 21 2014

NOTE: "FAIR" INDICATES FEW OR NO CLOUDS BELOW 12,000 FEET WITH
NO SIGNIFICANT WEATHER AND/OR OBSTRUCTIONS TO VISIBILITY.

* THESE REPORTS ARE NOT UNDER NWS QUALITY CONTROL AND MAY NOT
  REPORT WEATHER SUCH AS PRECIPITATION AND FOG.

KYZ079-080-083-085-087-088-110-112-115-119-120-220200
...EASTERN KENTUCKY...

CITY           SKY/WX    TMP DP  RH WIND       PRES   REMARKS
JACKSON        CLOUDY    49  39  68 VRB3      30.10R
LONDON         CLOUDY    53  39  59 N7        30.11R
SOMERSET*      CLOUDY    50  39  66 NE7       30.12S
MONTICELLO*    MOCLDY    52  42  68 N7        30.13R
MIDDLESBORO*   CLOUDY    51  41  68 CALM      30.09S
HARLAN APT*    CLOUDY    50  37  62 NE5       30.09R
BIG SANDY*     CLOUDY    49  41  72 NW3       30.09S
MOREHEAD APT*  CLOUDY    50  43  76 NW6       30.13S
$$

KYZ035-036-041-042-044-050-067-078-099-220200
...CENTRAL KENTUCKY...

CITY           SKY/WX    TMP DP  RH WIND       PRES   REMARKS
MT STERLING*   CLOUDY    50  43  76 NE5       30.13S
FLEMING/MASON* DRIZZLE   46  45  93 NW6       30.14R
DANVILLE*      CLOUDY    50  43  76 CALM      30.13R
RICHMOND*      CLOUDY    50  39  66 N3        30.11S
LEXINGTON      CLOUDY    53  41  63 N5        30.12R
FRANKFORT      CLOUDY    53  40  61 CALM      30.12R
$$

KYZ091>093-OHZ055-061-077-WVZ005-015-034-035-042-220200
...SOUTHERN OHIO/WEST VIRGINIA...

CITY           SKY/WX    TMP DP  RH WIND       PRES   REMARKS
COVINGTON      MOCLDY    50  40  68 N8        30.13R
COLUMBUS       CLOUDY    46  40  79 NW14      30.12R
DAYTON         CLOUDY    47  41  80 N14       30.16R
WILMINGTON     CLOUDY    47  40  76 N10       30.13R
HUNTINGTON     LGT RAIN  48  43  82 N8        30.09R
CHARLESTON     LGT RAIN  48  44  86 NW14G22   30.06R FOG
PINEVILLE*     CLOUDY    47  45  91 MISG      30.10S
BECKLEY        LGT RAIN  43  40  89 NW9       30.03R
BLUEFIELD      LGT RAIN  45  38  76 NW14      30.03S
$$

VAZ002-007-008-TNZ017-027-036-066-071-220200
...SOUTHWEST VIRGINIA/EAST TENNESSEE...

CITY           SKY/WX    TMP DP  RH WIND       PRES   REMARKS
WISE*          CLOUDY    45  36  70 NW6       30.08R
JONESVILLE*    PTCLDY    50  37  62 N5        30.10S
ABINGDON*      MOCLDY    49  38  65 N6        30.06S
BRISTOL        PTCLDY    51  38  60 N7        30.07R
KNOXVILLE      PTCLDY    56  43  61 NE13G21   30.05R
OAK RIDGE      CLOUDY    57  43  59 VRB5      30.09R
CROSSVILLE     CLEAR     53  41  63 N9        30.09R
NASHVILLE      CLEAR     59  45  59 N13       30.08R
$$

...KEY TO REMARKS...
VSB - VISIBILITY IN MILES
WCI - WIND CHILL INDEX
HX  - HEAT INDEX

$$



USA.gov is the U.S. government's official web portal to all federal, state and local government web resources and services.